Location: C.E.K. Mees Observatory
(42.7003°N, 77.4088°W)
Time: 22:04:48
(UTC-05:00)

Envisat - Pass Details

Date: 21 November 2019
Orbit: 764 x 766 km, 98.1° (Epoch: 14 December)

Event Time Altitude Azimuth Distance (km) Brightness Sun altitude
Rises 06:26:00 0° 20° (NNE) 3,239 6.3 -8.0°
Reaches altitude 10° 06:28:29 10° 29° (NNE) 2,308 5.6 -7.6°
Maximum altitude 06:33:13 38° 97° (E) 1,151 4.7 -6.8°
Drops below altitude 10° 06:37:54 10° 166° (SSE) 2,292 6.0 -5.9°
Sets 06:40:20 0° 174° (S) 3,213 6.6 -5.5°
